TimeCST,TemperatureF,Dew PointF,Humidity,Sea Level PressureIn,VisibilityMPH,Wind Direction,Wind SpeedMPH,Gust SpeedMPH,PrecipitationIn,Events,Conditions,WindDirDegrees,DateUTC
12:15 AM,23.0,15.8,74,30.27,-9999.0,SSW,3.5,-,N/A,,Clear,200,2013-01-03 06:15:00
12:35 AM,21.2,15.8,80,30.28,-9999.0,Calm,Calm,-,N/A,,Clear,0,2013-01-03 06:35:00
12:55 AM,23.0,17.6,80,30.27,-9999.0,Calm,Calm,-,N/A,,Clear,0,2013-01-03 06:55:00
1:15 AM,23.0,17.6,80,30.28,-9999.0,Calm,Calm,-,N/A,,Clear,0,2013-01-03 07:15:00
1:55 AM,23.0,17.6,80,30.29,-9999.0,Calm,Calm,-,N/A,,Clear,0,2013-01-03 07:55:00
2:55 AM,21.2,17.6,86,30.31,-9999.0,Calm,Calm,-,N/A,,Unknown,0,2013-01-03 08:55:00
3:15 AM,21.2,17.6,86,30.32,-9999.0,WNW,3.5,-,N/A,,Unknown,290,2013-01-03 09:15:00
3:35 AM,21.2,15.8,80,30.32,-9999.0,NW,5.8,-,N/A,,Clear,310,2013-01-03 09:35:00
3:55 AM,21.2,15.8,80,30.32,-9999.0,Calm,Calm,-,N/A,,Clear,0,2013-01-03 09:55:00
4:15 AM,21.2,15.8,80,30.33,-9999.0,Calm,Calm,-,N/A,,Clear,0,2013-01-03 10:15:00
4:35 AM,21.2,15.8,80,30.33,-9999.0,Calm,Calm,-,N/A,,Clear,0,2013-01-03 10:35:00
4:55 AM,21.2,15.8,80,30.34,-9999.0,Calm,Calm,-,N/A,,Clear,0,2013-01-03 10:55:00
5:15 AM,19.4,15.8,86,30.35,-9999.0,Calm,Calm,-,N/A,,Unknown,0,2013-01-03 11:15:00
5:35 AM,21.2,15.8,80,30.35,-9999.0,Calm,Calm,-,N/A,,Mostly Cloudy,0,2013-01-03 11:35:00
5:55 AM,21.2,15.8,80,30.35,-9999.0,Calm,Calm,-,N/A,,Overcast,0,2013-01-03 11:55:00
6:15 AM,21.2,17.6,86,30.35,-9999.0,Calm,Calm,-,N/A,,Mostly Cloudy,0,2013-01-03 12:15:00
6:35 AM,19.4,15.8,86,30.36,-9999.0,Calm,Calm,-,N/A,,Unknown,0,2013-01-03 12:35:00
6:55 AM,19.4,14.0,80,30.37,-9999.0,Calm,Calm,-,N/A,,Clear,0,2013-01-03 12:55:00
7:35 AM,19.4,15.8,86,30.37,-9999.0,Calm,Calm,-,N/A,,Unknown,0,2013-01-03 13:35:00
7:55 AM,19.4,15.8,86,30.38,-9999.0,Calm,Calm,-,N/A,,Unknown,0,2013-01-03 13:55:00
8:15 AM,21.2,15.8,80,30.39,-9999.0,Calm,Calm,-,N/A,,Mostly Cloudy,0,2013-01-03 14:15:00
8:35 AM,21.2,17.6,86,30.40,-9999.0,Calm,Calm,-,N/A,,Overcast,0,2013-01-03 14:35:00
9:16 AM,26.6,21.2,80,30.42,-9999.0,Calm,Calm,-,N/A,,Clear,0,2013-01-03 15:16:00
9:35 AM,28.4,23.0,80,30.43,-9999.0,Calm,Calm,-,N/A,,Clear,0,2013-01-03 15:35:00
9:55 AM,30.2,24.8,80,30.43,-9999.0,Calm,Calm,-,N/A,,Clear,0,2013-01-03 15:55:00
10:15 AM,32.0,26.6,80,30.44,-9999.0,Calm,Calm,-,N/A,,Clear,0,2013-01-03 16:15:00
10:35 AM,33.8,26.6,75,30.44,-9999.0,Calm,Calm,-,N/A,,Clear,0,2013-01-03 16:35:00
10:55 AM,33.8,26.6,75,30.45,-9999.0,NW,3.5,-,N/A,,Clear,310,2013-01-03 16:55:00
11:15 AM,35.6,26.6,70,30.44,-9999.0,Calm,Calm,-,N/A,,Clear,0,2013-01-03 17:15:00
11:35 AM,35.6,26.6,70,30.44,-9999.0,West,3.5,-,N/A,,Partly Cloudy,280,2013-01-03 17:35:00
11:55 AM,37.4,26.6,65,30.42,-9999.0,NW,4.6,-,N/A,,Clear,320,2013-01-03 17:55:00
12:15 PM,39.2,28.4,65,30.41,-9999.0,NNW,3.5,-,N/A,,Scattered Clouds,330,2013-01-03 18:15:00
12:55 PM,39.2,26.6,61,30.39,-9999.0,Calm,Calm,-,N/A,,Scattered Clouds,0,2013-01-03 18:55:00
1:15 PM,39.2,26.6,61,30.38,-9999.0,WNW,4.6,-,N/A,,Scattered Clouds,300,2013-01-03 19:15:00
1:55 PM,41.0,26.6,57,30.38,-9999.0,Calm,Calm,-,N/A,,Clear,0,2013-01-03 19:55:00
2:35 PM,42.8,24.8,49,30.37,-9999.0,North,8.1,-,N/A,,Clear,350,2013-01-03 20:35:00
2:55 PM,42.8,24.8,49,30.38,-9999.0,North,8.1,-,N/A,,Clear,350,2013-01-03 20:55:00
3:55 PM,41.0,23.0,49,30.38,-9999.0,NW,5.8,-,N/A,,Clear,310,2013-01-03 21:55:00
4:15 PM,41.0,21.2,45,30.39,-9999.0,NW,4.6,-,N/A,,Clear,310,2013-01-03 22:15:00
4:35 PM,39.2,21.2,49,30.39,-9999.0,NNW,5.8,-,N/A,,Clear,340,2013-01-03 22:35:00
4:55 PM,37.4,21.2,52,30.40,-9999.0,North,3.5,-,N/A,,Clear,350,2013-01-03 22:55:00
5:15 PM,37.4,21.2,52,30.40,-9999.0,North,4.6,-,N/A,,Clear,350,2013-01-03 23:15:00
5:35 PM,35.6,19.4,52,30.40,-9999.0,North,5.8,-,N/A,,Clear,350,2013-01-03 23:35:00
6:15 PM,33.8,19.4,56,30.40,-9999.0,North,5.8,-,N/A,,Clear,350,2013-01-04 00:15:00
6:36 PM,33.8,19.4,56,30.41,-9999.0,North,6.9,-,N/A,,Clear,350,2013-01-04 00:36:00
6:55 PM,33.8,19.4,56,30.41,-9999.0,North,5.8,-,N/A,,Clear,350,2013-01-04 00:55:00
7:15 PM,32.0,19.4,60,30.41,-9999.0,North,3.5,-,N/A,,Clear,10,2013-01-04 01:15:00
7:35 PM,30.2,19.4,64,30.41,-9999.0,Calm,Calm,-,N/A,,Clear,0,2013-01-04 01:35:00
7:55 PM,30.2,19.4,64,30.42,-9999.0,Calm,Calm,-,N/A,,Clear,0,2013-01-04 01:55:00
8:35 PM,30.2,19.4,64,30.42,-9999.0,Calm,Calm,-,N/A,,Overcast,0,2013-01-04 02:35:00
8:55 PM,30.2,19.4,64,30.42,-9999.0,Calm,Calm,-,N/A,,Overcast,0,2013-01-04 02:55:00
9:15 PM,30.2,19.4,64,30.42,-9999.0,Calm,Calm,-,N/A,,Overcast,0,2013-01-04 03:15:00
9:35 PM,30.2,21.2,69,30.42,-9999.0,Calm,Calm,-,N/A,,Overcast,0,2013-01-04 03:35:00
10:15 PM,30.2,23.0,75,30.43,-9999.0,NNW,6.9,-,N/A,,Overcast,340,2013-01-04 04:15:00
10:35 PM,32.0,24.8,75,30.42,-9999.0,North,5.8,-,N/A,,Overcast,350,2013-01-04 04:35:00
10:55 PM,30.2,23.0,75,30.43,-9999.0,North,3.5,-,N/A,,Overcast,350,2013-01-04 04:55:00
11:15 PM,30.2,23.0,75,30.43,-9999.0,Calm,Calm,-,N/A,,Overcast,0,2013-01-04 05:15:00
11:55 PM,30.2,23.0,75,30.43,-9999.0,Calm,Calm,-,N/A,,Overcast,0,2013-01-04 05:55:00